Wind_Speed
42 39 38 42 46 49 49 48 46 45 44 43 42 42 41 40 38 41 44 47 51 40 30 33 30 27 30 31 34 37 40 41 41 42 44 45 45 44 46 46 47 47 47 47 47 48 46 44 43 40 39 39 40 40 39 39 40 41 42 42 43 43 42 43 44 46 47 50 53 57 60 62 62 62 62 62 62 63 63 62 61 61 61 61 61 61
45 41 41 45 47 47 47 49 49 48 47 44 43 42 41 42 40 41 44 46 51 42 31 35 32 28 32 32 33 37 39 43 44 42 44 47 48 48 48 49 48 47 48 50 50 49 48 47 46 44 43 43 43 42 41 41 41 41 41 42 43 43 44 45 45 46 46 47 48 50 54 58 61 63 64 64 65 65 65 65 65 64 64 63 63 63
47 45 47 50 48 47 48 50 51 50 49 48 48 46 43 45 44 42 45 47 49 44 37 37 32 28 32 32 32 37 39 44 47 44 43 45 49 51 49 49 48 47 48 49 50 51 50 50 49 48 47 46 46 46 45 43 43 43 42 43 43 43 44 46 47 47 47 47 47 47 49 51 55 59 63 65 66 66 66 67 67 67 66 65 65 65
49 49 52 54 52 51 51 52 53 53 52 51 54 53 48 49 48 43 44 48 48 45 41 39 33 29 32 32 31 36 41 45 47 45 42 43 47 50 51 51 50 49 50 50 52 53 53 53 52 50 50 49 50 50 50 48 46 45 46 46 46 45 45 46 47 48 49 49 48 47 47 48 50 54 58 61 64 66 67 68 68 68 67 67 67 68
51 54 56 56 56 56 55 55 58 57 55 56 58 59 56 54 54 49 46 46 46 47 46 43 37 30 32 33 31 36 44 46 46 45 43 45 48 49 51 53 54 55 55 55 55 56 56 56 56 54 53 52 52 52 53 52 51 50 50 49 49 49 49 49 49 49 50 50 50 50 49 49 49 50 52 55 59 61 62 64 64 65 65 66 66 67
53 58 60 57 58 59 59 59 64 64 59 58 61 62 60 57 57 55 53 50 46 47 49 48 42 33 32 34 34 38 44 47 47 47 47 48 49 50 50 52 56 59 60 59 59 59 58 58 58 57 56 55 55 55 55 56 56 56 55 54 53 53 53 53 53 52 52 51 52 52 52 52 51 51 52 54 55 56 56 58 59 60 60 61 63 63
56 63 64 62 62 62 62 64 68 67 62 59 62 65 64 61 60 58 57 56 52 50 51 51 50 40 33 35 39 41 45 47 48 50 50 50 51 51 51 52 54 56 58 60 60 60 60 59 59 59 58 58 56 56 56 58 59 59 59 58 58 57 57 56 56 55 55 54 54 53 54 54 55 55 56 56 56 56 56 56 57 57 58 59 60 60
62 66 67 66 66 65 65 68 70 70 66 64 67 69 69 68 66 63 60 58 55 52 50 50 55 51 41 39 43 43 44 46 47 49 50 49 50 51 50 50 51 51 52 56 59 61 61 60 60 60 59 59 58 57 57 58 60 60 61 61 61 60 59 59 58 56 57 57 57 57 56 57 58 59 59 58 58 58 58 58 58 59 60 60 61 61
68 68 68 68 68 68 69 71 71 72 71 70 72 73 73 74 73 70 68 65 61 54 48 48 55 57 47 42 46 47 47 47 46 48 50 49 49 50 51 53 55 56 56 58 60 61 63 63 62 61 61 61 59 59 60 60 61 61 62 62 62 62 61 61 60 59 59 59 59 59 59 59 60 61 61 61 61 61 61 61 61 62 62 63 63 64
71 70 70 70 71 73 74 75 75 75 75 74 75 74 75 77 76 76 75 72 71 62 54 57 62 62 49 38 43 47 48 50 50 51 53 53 54 54 56 59 61 63 63 63 63 63 66 69 68 67 66 64 63 63 63 63 62 62 63 63 63 64 64 64 63 63 63 62 61 61 60 61 62 62 62 63 63 63 64 64 64 65 65 65 65 66
73 72 72 74 76 78 79 80 81 81 81 80 79 78 78 80 79 80 79 78 80 72 67 69 72 73 54 35 41 49 48 52 56 59 59 59 60 61 63 65 66 68 68 68 67 67 68 71 72 72 72 70 68 67 67 66 65 64 64 65 65 66 66 67 66 66 67 66 65 64 64 63 64 64 64 64 64 64 65 66 66 67 66 66 66 67
76 76 76 77 79 81 82 84 85 86 87 86 85 84 85 85 85 86 84 86 88 82 77 77 80 83 64 44 53 62 59 61 64 67 68 66 66 68 70 71 71 72 73 73 72 71 71 71 72 74 77 78 77 74 73 71 69 67 67 68 68 69 69 69 69 68 68 68 68 68 68 67 66 65 66 67 67 67 67 67 68 68 68 67 67 67
80 79 81 81 82 84 85 87 88 90 91 92 92 92 92 92 91 92 92 94 95 90 86 87 89 89 74 63 70 74 74 77 76 75 78 79 80 79 79 80 80 79 78 78 78 76 75 75 76 76 78 81 84 84 82 79 76 73 72 72 73 73 73 72 71 71 70 70 70 70 71 70 69 68 69 70 70 71 71 70 70 70 71 71 71 71
85 83 84 86 86 87 89 91 93 93 93 94 96 97 99 100 99 100 101 101 100 97 95 97 99 94 82 78 82 83 84 88 88 88 89 90 91 91 92 92 91 89 87 85 84 83 82 82 81 81 80 80 82 85 86 86 86 83 81 79 78 78 78 77 75 74 73 73 73 73 73 73 72 72 73 73 74 74 74 74 73 73 74 74 75 75
93 90 88 90 91 90 90 93 96 98 98 99 101 102 104 105 106 108 110 109 106 104 103 104 106 102 95 91 91 92 93 93 94 97 97 98 98 96 98 99 99 99 98 94 91 90 91 89 86 85 86 85 84 85 86 88 90 91 90 88 86 84 83 82 80 79 78 77 77 77 77 76 76 76 76 76 76 77 77 77 76 76 76 76 78 78
100 96 92 94 96 94 94 96 99 102 103 103 104 106 107 109 111 114 116 116 113 112 113 112 112 111 106 101 98 95 96 96 98 99 101 104 105 103 104 104 103 104 105 103 99 97 97 96 93 90 89 90 89 88 89 91 91 92 93 94 93 92 89 87 86 85 84 84 83 81 81 80 80 80 80 80 80 79 78 78 78 78 78 78 79 80
105 101 96 96 99 101 101 102 103 104 104 105 106 106 108 111 114 116 118 119 119 122 123 120 119 117 113 110 104 97 97 99 101 103 106 108 109 110 110 109 107 106 107 107 106 104 102 101 99 95 93 93 93 93 92 94 95 96 95 95 95 96 96 94 92 91 91 90 90 89 88 86 85 84 85 84 83 82 81 80 80 80 80 80 80 81
111 108 103 101 103 107 107 106 106 106 106 109 110 109 111 115 116 117 120 122 123 126 127 125 124 122 120 119 111 103 103 105 107 109 111 112 112 112 111 111 110 109 109 110 109 108 106 104 102 101 100 99 99 98 96 96 98 99 99 98 97 98 99 97 95 95 95 96 96 97 96 95 93 90 89 88 87 85 84 83 83 83 82 82 81 82
114 115 111 106 106 110 112 112 110 110 111 113 116 117 119 120 121 122 124 126 128 130 130 130 129 127 125 123 118 112 111 112 113 115 115 114 114 112 111 110 109 110 110 111 111 110 109 106 104 104 105 105 105 104 102 100 99 99 101 102 102 101 101 101 99 97 97 99 101 102 102 102 101 99 95 93 92 91 89 88 87 87 87 86 86 86
117 119 118 113 111 114 117 116 114 114 116 121 123 125 125 126 126 128 130 132 133 135 137 137 138 137 133 129 125 120 116 114 115 117 117 116 115 114 113 112 111 111 111 111 112 111 110 108 107 105 105 105 107 108 108 106 103 101 101 103 106 107 106 106 106 105 104 103 103 104 105 105 105 104 102 98 96 95 95 95 94 93 93 94 93 93
119 122 124 122 120 120 121 120 119 120 123 126 129 129 130 130 132 135 137 139 140 142 145 146 146 144 139 134 128 122 117 115 115 115 115 117 116 116 115 114 113 113 112 112 112 112 110 109 107 105 102 102 104 107 110 110 107 105 104 104 106 109 110 110 110 110 110 109 107 106 106 107 107 107 106 104 102 100 100 101 101 100 100 100 100 99
124 127 130 130 127 125 123 123 124 126 127 129 132 134 136 137 140 143 145 145 145 146 147 148 148 144 139 133 127 121 117 117 117 116 115 116 116 116 115 114 113 112 112 112 111 110 109 108 107 105 102 101 103 105 108 109 109 108 108 107 108 110 112 113 112 112 112 112 111 109 108 108 109 109 109 108 108 107 107 106 106 107 107 107 106 104
131 134 135 134 133 132 130 129 129 131 133 135 138 141 142 144 146 147 147 147 146 145 145 145 144 141 135 129 124 121 120 119 118 117 115 113 113 113 112 112 112 112 113 112 111 109 108 108 109 108 106 103 103 104 106 108 109 109 109 110 110 111 112 114 115 115 115 115 114 113 112 111 111 112 112 112 113 113 113 112 111 111 111 111 111 109
136 138 140 140 140 141 140 138 137 138 141 143 145 146 147 147 147 146 145 144 143 141 140 139 138 135 130 125 122 122 122 122 120 117 115 113 112 112 111 112 112 113 114 115 114 112 110 109 110 111 111 109 107 105 104 105 107 108 108 109 110 111 112 114 115 116 117 117 117 117 116 115 115 116 116 116 116 116 116 115 115 114 114 114 114 113
142 144 146 147 148 148 147 146 145 145 146 148 149 149 148 145 143 141 139 138 138 136 133 132 131 128 125 123 123 123 123 122 120 118 117 115 113 113 114 114 115 116 117 117 117 117 115 114 113 114 115 114 113 110 106 105 105 106 107 108 110 111 112 113 114 115 116 117 118 118 118 118 118 119 120 120 120 120 119 118 117 117 117 117 116 116
149 150 151 151 152 153 152 151 149 148 148 148 147 144 141 138 135 134 132 132 131 128 126 126 126 123 122 122 123 123 123 123 121 119 117 116 115 115 115 117 118 118 118 119 119 120 120 120 119 119 118 116 114 111 108 106 105 105 106 107 108 109 110 111 111 112 113 115 116 117 118 119 120 121 121 122 121 121 121 120 119 119 119 119 120 119
153 153 154 153 153 154 153 151 148 145 144 142 139 135 132 129 127 126 126 125 122 121 122 121 120 121 122 122 122 122 123 123 122 120 118 117 117 117 118 119 120 120 119 119 119 120 121 121 121 120 118 114 111 108 106 105 104 105 105 106 107 107 108 109 108 108 109 110 111 113 115 117 119 121 122 122 122 121 121 120 120 120 120 121 122 122
153 154 154 153 151 150 148 143 139 137 135 134 131 128 125 122 121 120 118 116 115 118 119 116 115 119 122 122 122 121 121 121 122 122 121 119 117 117 117 118 119 118 117 117 117 117 118 117 117 115 113 110 107 105 104 104 104 104 105 106 106 106 107 107 107 106 105 106 107 109 112 114 117 118 119 119 119 119 119 118 118 118 119 119 121 122
149 148 148 146 145 143 140 136 132 130 128 127 126 123 120 118 116 114 111 110 112 116 116 113 112 116 119 120 119 117 117 117 118 119 119 118 117 115 115 114 114 112 111 111 111 110 110 109 108 107 105 104 102 100 100 102 102 103 103 105 105 105 105 106 107 106 104 104 104 106 109 111 113 114 114 113 113 113 114 115 116 117 117 118 119 120
143 142 140 139 138 136 133 130 128 126 125 124 121 119 116 113 111 109 108 109 111 114 113 112 112 114 116 115 113 112 112 113 113 113 113 113 113 112 111 110 109 106 104 103 103 103 101 100 100 99 99 99 98 98 97 98 100 101 102 103 104 104 104 104 105 106 105 103 102 103 106 108 110 111 110 109 108 107 108 109 111 114 115 116 117 118
138 137 135 134 133 131 127 125 125 125 124 122 118 115 112 109 107 108 109 109 110 110 110 110 111 112 112 111 110 110 109 109 109 108 107 107 107 107 107 107 105 103 100 98 98 97 96 96 96 96 96 96 96 96 96 96 97 99 101 103 104 105 105 104 104 104 104 103 101 100 101 104 106 107 107 106 105 105 105 105 106 108 110 112 114 115
134 134 132 131 131 127 122 121 123 124 123 120 114 109 108 108 108 109 110 110 108 108 107 107 109 110 109 109 109 109 108 108 107 106 105 104 105 105 105 104 104 102 100 98 96 95 94 94 94 94 94 94 94 94 95 95 95 96 99 102 104 105 106 106 104 103 103 103 101 99 99 100 102 103 104 104 104 104 104 104 104 104 105 107 109 111
131 131 130 129 129 125 120 119 122 123 121 113 106 106 108 108 108 108 108 108 108 107 107 108 108 109 109 108 108 108 108 108 108 107 106 105 104 104 104 103 103 102 101 99 97 95 94 93 92 92 92 92 92 92 93 93 94 95 97 100 102 105 106 106 105 104 104 104 103 101 100 99 100 101 101 102 102 102 103 103 103 103 103 104 105 106
127 128 127 128 128 124 119 119 122 123 116 107 103 106 108 106 105 105 107 107 107 107 108 108 108 108 108 109 109 108 108 108 108 108 107 107 106 105 104 105 104 103 101 100 99 98 96 94 93 92 91 91 92 92 91 91 91 92 94 97 100 102 104 105 105 105 105 105 105 103 102 101 101 101 101 101 101 102 102 102 103 102 102 103 103 104
125 125 125 126 126 124 119 119 122 120 113 107 106 106 104 103 104 105 106 106 106 107 107 108 108 108 109 109 109 108 107 107 106 107 107 107 107 106 105 105 106 105 104 103 102 100 99 97 96 94 93 92 92 92 92 90 89 89 91 94 97 99 101 103 104 105 105 106 106 105 105 104 103 103 103 103 102 102 102 102 103 103 102 102 102 103
124 123 123 123 123 122 119 119 119 117 112 109 107 104 103 104 106 106 106 106 105 105 106 107 108 109 109 109 109 108 107 106 105 106 107 107 107 106 106 105 106 106 106 106 105 104 102 101 99 98 97 95 94 94 94 92 90 88 89 91 93 95 97 99 101 103 105 105 106 106 106 106 106 106 106 105 104 104 104 104 105 105 104 103 103 103
121 122 122 121 120 120 118 117 116 114 112 109 107 105 105 105 105 106 107 106 104 104 105 107 107 108 108 109 109 108 107 105 105 105 107 108 108 108 107 107 107 107 107 107 107 107 106 104 103 101 100 98 97 97 96 95 93 90 89 90 92 93 94 96 98 100 103 104 105 106 107 108 109 110 110 108 107 106 106 106 107 107 107 106 106 106
118 118 119 119 118 117 117 115 113 112 110 107 106 106 106 106 106 106 107 106 103 103 105 106 106 106 107 108 108 107 107 105 104 104 107 108 108 108 108 109 109 109 108 108 108 107 107 107 106 104 103 101 100 99 98 97 96 94 92 91 92 93 94 95 96 97 99 102 103 105 106 108 109 111 112 111 109 108 107 107 108 108 109 109 109 109
113 114 115 116 116 115 115 114 112 110 108 106 106 106 106 106 106 106 108 106 102 103 107 108 106 105 106 106 107 107 106 105 103 103 105 108 109 108 108 108 108 108 109 108 107 107 106 106 106 106 105 104 102 101 99 98 97 96 95 93 94 94 95 95 95 95 96 98 100 103 105 107 109 111 112 112 111 109 107 107 108 109 109 110 110 111
109 110 111 113 114 113 113 113 111 109 107 106 106 106 106 107 107 107 108 106 103 105 108 108 106 106 106 106 106 105 105 104 103 102 103 105 107 108 108 107 107 107 107 107 107 106 104 103 103 104 105 105 105 103 102 100 97 96 96 96 96 97 96 96 95 94 95 95 97 101 103 106 107 109 111 112 111 110 108 107 108 108 109 110 111 111
106 107 109 110 111 111 111 112 111 108 104 103 106 107 107 108 108 107 106 105 105 107 107 106 106 106 105 106 105 104 103 103 102 101 100 101 103 106 107 108 107 107 107 107 107 106 104 101 100 101 102 103 104 104 104 103 100 97 96 97 99 99 99 97 95 94 94 94 96 98 101 104 105 107 108 110 111 110 108 107 107 108 108 109 110 110
103 105 108 108 109 110 111 111 110 105 99 100 105 108 108 108 108 106 105 105 105 105 105 106 106 106 105 105 105 103 103 102 101 100 99 99 99 101 104 106 107 107 107 107 107 107 105 102 99 98 99 100 101 102 103 104 103 100 98 97 98 100 100 98 97 95 94 94 96 98 100 102 104 105 107 108 110 110 109 108 107 107 107 108 108 108
102 105 106 106 108 110 110 109 107 102 99 101 106 107 107 108 107 105 104 104 103 104 104 104 105 105 106 105 104 102 101 99 98 98 98 97 96 97 98 101 103 104 104 105 105 106 105 103 100 98 98 98 99 100 100 101 102 102 100 98 98 100 100 99 98 97 96 96 97 98 99 101 103 104 106 107 109 110 110 110 108 107 107 107 107 107
101 104 105 104 105 107 107 104 101 101 101 102 104 106 106 106 105 105 105 103 102 101 101 102 102 103 103 103 102 100 98 97 96 95 94 94 93 92 93 94 97 99 100 101 102 103 104 103 100 99 98 97 98 98 98 99 100 101 101 100 99 98 98 99 99 98 97 97 98 98 99 100 102 103 105 107 109 110 111 111 110 109 108 108 107 107
99 101 103 102 101 103 104 98 95 99 103 102 103 104 104 102 102 104 105 102 100 99 99 100 101 100 100 100 100 98 97 95 94 93 93 92 91 90 90 91 93 95 97 98 99 101 102 102 100 99 98 98 98 98 97 97 97 97 99 100 99 97 96 96 98 98 98 99 99 99 99 100 101 103 105 107 109 110 111 112 112 111 110 109 108 108
96 98 101 99 97 98 97 91 91 98 101 100 100 99 99 99 100 101 101 100 98 98 98 100 99 99 99 99 99 98 97 95 94 93 93 92 90 89 89 90 91 93 94 95 96 98 99 100 99 99 98 97 97 98 97 96 95 95 96 98 99 97 94 94 95 97 98 99 100 100 100 100 100 102 104 106 108 110 111 111 112 111 111 110 110 109
92 95 97 95 93 94 90 85 90 97 97 95 96 95 95 97 98 97 98 98 98 98 98 98 98 98 98 99 98 98 96 95 95 95 93 92 91 89 90 90 91 92 92 93 94 95 96 97 97 97 97 96 96 97 97 95 94 95 95 96 97 97 94 93 93 94 95 97 99 100 100 100 100 101 103 105 106 108 109 110 110 111 111 111 111 111
89 90 92 93 93 91 85 82 88 95 95 93 93 92 92 95 96 96 97 98 98 98 98 97 98 98 98 98 98 97 95 94 94 95 94 92 91 90 90 90 90 91 91 91 92 93 93 93 93 93 93 93 93 95 96 95 94 95 96 96 96 95 93 91 91 92 92 94 96 97 98 98 99 100 101 103 104 105 106 107 108 110 110 110 110 110
88 88 90 94 93 88 83 83 88 93 93 91 90 90 92 94 94 95 96 97 98 98 98 97 97 97 96 96 96 95 94 93 93 94 93 90 89 89 89 89 89 89 89 89 90 90 90 89 89 89 88 89 90 92 92 92 92 94 95 95 94 93 91 89 88 89 89 90 92 93 94 95 96 97 98 99 101 103 104 105 107 108 108 108 109 109
88 88 91 95 92 86 84 86 89 91 90 89 89 92 94 94 94 94 95 96 97 97 97 97 97 96 95 95 94 94 93 92 91 91 89 88 87 86 85 86 86 85 86 86 87 87 87 87 86 86 85 86 87 88 88 88 89 91 94 94 92 90 90 88 87 86 86 87 88 90 91 91 92 93 94 95 97 99 100 102 104 105 106 107 107 107
86 88 91 94 92 87 85 86 88 90 90 89 90 93 94 95 95 95 95 96 96 96 95 95 94 94 93 93 93 93 91 89 88 87 86 85 83 82 81 81 81 81 81 82 83 83 84 84 85 84 84 84 85 86 85 85 86 88 90 91 89 88 88 88 86 84 83 84 85 87 88 88 88 89 90 91 92 94 95 96 98 100 102 103 105 105
Wind_Direction
292 293 293 289 284 283 286 289 289 289 289 290 289 288 286 282 280 278 276 275 276 278 285 285 284 289 289 288 289 290 293 293 290 291 294 296 297 297 295 292 290 291 291 290 289 288 285 282 280 276 272 273 275 275 274 272 269 268 268 268 269 271 272 273 273 273 271 268 265 262 260 260 260 262 263 263 263 263 264 264 264 264 265 265 266 267
290 293 292 288 286 286 287 287 287 288 289 290 289 287 286 284 280 279 280 279 279 282 281 275 276 283 286 285 285 287 289 289 288 290 293 295 296 295 293 294 293 292 292 291 290 289 287 285 282 279 275 274 274 274 274 273 271 270 269 268 268 269 271 271 271 272 272 271 270 268 265 262 261 260 260 261 262 263 264 264 264 265 265 266 267 268
288 289 287 285 285 286 287 287 286 287 287 288 287 284 284 284 281 280 283 282 282 285 281 275 272 272 277 280 282 284 285 284 285 288 290 292 293 292 292 293 295 295 293 292 291 290 289 287 285 282 278 276 274 273 273 272 272 271 270 269 268 268 270 272 273 273 273 272 271 270 268 266 263 262 261 261 262 262 263 264 264 265 266 267 268 269
287 285 283 282 282 284 285 285 285 285 286 286 285 283 281 281 280 279 280 283 285 285 282 277 272 267 270 273 276 280 281 280 283 286 288 287 287 289 292 293 295 294 292 291 290 290 290 288 286 284 281 278 276 274 272 271 271 272 272 271 270 269 269 270 271 273 274 273 272 269 268 267 266 264 263 263 262 262 263 264 265 266 267 267 268 268
289 285 281 281 281 282 283 284 284 283 283 285 285 284 282 279 279 277 275 277 282 285 283 278 272 267 267 266 266 272 276 279 282 285 287 286 285 286 289 293 294 292 290 290 290 289 289 288 288 286 285 281 279 277 274 272 271 271 272 272 271 271 270 270 269 269 270 271 272 271 270 268 267 267 266 265 264 264 264 265 265 266 266 266 266 266
291 286 283 283 282 282 283 283 283 281 281 284 286 285 284 281 279 277 275 273 274 277 280 279 274 265 262 265 263 263 270 276 280 283 285 285 285 287 288 289 289 289 289 289 289 290 290 289 287 286 285 283 281 280 277 275 274 272 272 271 271 271 271 271 271 270 268 267 267 268 269 269 269 268 267 266 266 266 266 265 265 265 264 264 264 265
289 286 286 287 285 284 284 283 282 282 283 285 285 285 286 285 282 280 277 274 272 271 273 276 275 265 256 263 265 260 262 269 276 281 283 283 285 287 288 285 284 285 287 287 288 289 289 288 287 285 284 282 281 281 279 278 276 274 273 271 271 271 271 271 271 271 271 269 266 265 266 268 269 268 267 266 267 267 267 265 265 264 263 263 264 264
284 285 287 288 288 288 287 285 285 285 285 285 285 285 286 286 284 283 281 279 276 273 273 275 276 269 257 256 263 264 264 265 271 277 280 282 285 287 286 284 283 283 284 286 287 287 287 285 284 284 283 281 280 280 279 278 277 276 274 273 272 272 271 271 270 270 270 270 270 269 268 268 269 268 269 268 268 267 266 266 265 264 264 264 264 264
284 285 287 288 290 290 288 287 288 288 287 286 285 285 285 285 285 286 285 285 283 278 276 278 277 273 264 257 260 262 264 264 265 269 272 275 278 280 281 281 284 285 284 285 285 286 286 284 282 281 281 281 279 278 277 276 276 275 275 274 274 273 272 271 270 269 269 268 269 270 271 271 270 270 270 269 269 267 267 266 266 266 266 266 266 267
283 284 285 286 287 286 286 287 288 288 288 287 286 286 286 286 287 287 288 289 288 285 285 284 280 276 270 263 263 263 263 266 265 264 266 268 269 269 271 274 277 281 282 282 282 283 284 285 283 281 280 280 279 277 276 275 275 274 274 274 274 273 272 271 270 270 269 268 268 268 269 271 271 271 270 269 269 269 269 269 268 268 268 269 269 269
283 284 285 285 286 286 286 287 288 288 288 288 289 289 289 289 289 289 290 291 290 291 291 288 284 282 276 265 270 273 270 269 270 270 269 268 268 268 270 272 273 274 275 275 276 277 278 281 282 283 282 280 279 277 276 275 275 275 275 275 274 274 273 272 270 269 269 269 268 267 267 268 269 269 268 267 267 267 268 269 270 270 270 271 271 270
286 287 287 287 288 288 288 289 290 289 289 290 291 292 292 291 291 291 291 291 291 292 291 287 285 286 284 280 284 285 282 277 276 278 278 277 274 271 270 270 271 272 272 272 271 272 273 273 274 277 280 281 280 278 277 277 276 276 276 276 275 274 273 272 271 270 269 269 269 268 267 267 267 267 267 266 266 266 267 268 268 269 270 270 270 270
288 289 288 288 288 288 289 290 290 289 290 292 293 293 293 293 293 292 292 290 289 290 290 288 287 289 291 294 293 292 290 287 285 285 287 287 286 284 281 277 274 273 271 269 268 268 270 270 268 268 271 275 277 278 278 277 276 275 275 275 275 274 273 272 272 271 271 270 270 269 269 268 267 267 267 267 267 266 267 267 268 268 268 269 269 269
289 288 289 288 288 289 290 290 289 289 291 291 292 293 294 295 295 294 292 289 289 291 290 290 290 291 294 296 294 293 292 292 292 292 291 290 290 290 289 286 283 281 277 273 269 266 266 266 266 264 263 265 269 272 276 277 278 277 275 274 274 273 272 272 272 272 273 273 273 272 271 270 268 267 267 267 268 268 268 269 269 269 269 269 270 270
289 289 290 289 289 289 288 288 289 291 292 293 293 293 294 296 295 292 290 290 290 291 290 290 292 294 295 295 293 292 293 293 293 292 290 290 289 289 288 287 286 285 282 279 274 271 268 265 263 261 260 261 262 265 268 271 274 276 277 276 275 274 274 273 272 272 273 274 274 274 274 272 271 269 268 267 267 268 269 270 270 271 271 272 272 272
288 290 290 289 288 288 286 286 288 290 292 292 292 293 294 294 291 289 290 291 291 290 291 292 293 294 294 292 291 291 291 291 290 288 287 288 289 289 287 286 284 283 282 280 278 276 273 270 266 261 259 259 260 262 263 264 266 269 272 275 277 277 277 276 275 273 272 272 272 272 272 272 272 271 270 268 267 267 268 269 270 271 272 272 272 273
288 288 288 286 286 287 287 288 289 289 289 290 290 290 290 289 287 288 289 290 290 290 292 293 292 292 291 290 290 289 288 288 287 286 286 286 286 286 285 283 281 279 278 278 278 277 276 274 271 266 262 259 259 260 261 263 263 264 266 269 273 276 277 277 277 275 273 272 272 271 270 270 270 270 270 270 270 269 268 268 268 268 269 270 270 271
288 287 286 285 286 287 288 288 288 288 288 288 286 286 285 285 285 286 287 288 288 289 290 290 290 290 289 289 289 286 285 285 284 283 283 283 283 282 281 279 278 277 275 276 276 277 276 276 274 271 267 264 262 260 260 260 261 263 264 265 267 270 273 274 274 273 273 273 272 271 270 270 269 268 268 269 270 270 269 269 268 268 267 267 268 269
287 285 286 286 286 286 287 287 288 289 288 285 283 283 284 284 285 285 285 286 286 286 287 287 287 286 286 287 287 284 283 284 283 282 281 281 280 278 276 274 273 273 273 273 274 275 275 275 274 273 271 268 266 263 261 258 258 259 261 263 264 265 267 268 268 268 269 270 270 270 270 269 269 269 267 267 268 269 269 268 268 268 267 267 267 268
284 284 285 286 285 284 285 287 288 287 285 283 283 283 284 285 285 285 285 285 285 286 286 285 285 285 284 284 284 283 283 282 281 280 280 279 277 275 274 273 272 272 272 272 273 273 274 275 275 273 271 269 267 265 263 260 258 256 256 259 261 261 262 263 263 263 263 264 266 267 268 268 268 268 268 267 267 267 267 266 266 266 266 266 267 268
281 282 283 284 283 284 285 286 285 283 282 283 283 284 284 285 285 284 284 285 285 285 285 285 285 285 284 283 283 283 282 281 279 277 277 276 275 274 273 273 273 273 272 272 272 273 274 276 276 275 272 270 268 266 264 262 260 258 255 255 256 257 259 259 260 260 261 262 262 263 264 265 266 267 267 267 267 267 266 265 264 264 264 265 266 266
279 280 282 283 283 284 284 283 282 282 282 283 283 284 285 285 285 285 285 285 285 285 285 285 284 284 284 284 284 283 281 279 277 275 274 275 275 275 275 275 275 274 273 273 273 273 275 276 276 275 273 272 270 268 266 264 262 260 259 256 254 254 255 256 257 258 259 260 261 262 262 263 264 265 265 266 266 266 266 265 264 263 263 264 265 265
280 280 281 282 283 283 282 282 282 282 283 283 284 284 284 284 284 284 284 285 284 284 283 283 283 284 284 284 284 283 281 278 277 276 276 276 276 276 276 276 276 276 275 275 275 275 275 275 276 276 275 273 272 270 268 266 263 262 261 260 258 255 254 253 254 255 256 258 259 260 260 261 261 261 262 263 264 265 265 265 264 263 263 263 264 264
280 280 281 282 282 283 283 283 283 284 284 284 284 284 283 283 283 283 283 283 282 282 282 282 282 283 283 283 282 281 280 279 278 278 278 277 277 277 276 276 276 276 276 277 277 277 277 276 277 277 278 277 275 272 269 266 264 263 262 261 260 259 257 255 253 253 254 255 257 258 258 258 258 259 260 260 261 262 263 264 264 264 263 262 262 263
280 280 281 282 283 283 284 284 284 284 284 283 283 283 283 283 282 282 282 281 280 280 281 281 280 281 282 281 280 279 279 278 278 277 277 276 276 275 275 275 275 275 276 276 277 278 278 277 277 277 278 278 277 275 272 268 264 262 261 261 260 260 259 258 256 255 254 254 255 256 257 257 257 257 258 258 259 260 261 262 262 262 262 262 261 261
281 281 281 282 283 283 284 284 284 284 283 282 282 282 282 282 281 280 280 279 279 280 280 279 279 280 280 279 279 278 278 277 277 276 276 276 275 274 274 274 274 274 274 274 275 276 276 276 276 276 276 276 275 274 272 270 267 263 261 260 260 260 259 258 257 257 256 255 255 255 255 256 256 256 256 257 258 258 259 261 261 261 261 260 261 261
281 281 282 282 282 283 283 283 283 283 283 282 282 281 281 280 280 279 279 279 279 279 278 277 278 279 278 278 278 277 278 278 278 277 277 276 276 275 274 274 273 273 273 273 273 274 274 274 275 275 275 274 274 272 271 269 267 266 264 262 261 260 260 259 258 257 256 256 255 255 255 255 255 255 256 257 257 258 259 260 260 260 260 259 259 260
281 281 282 282 282 282 283 283 283 283 282 282 281 281 280 280 280 279 279 279 279 277 276 277 277 277 277 276 276 276 277 277 277 277 277 276 275 275 274 273 273 273 273 272 272 272 272 273 273 273 273 272 271 270 269 268 266 265 265 264 263 262 261 261 260 259 257 256 255 254 254 254 254 254 255 256 257 257 258 259 259 259 259 259 259 259
280 281 281 282 282 282 283 283 283 282 282 281 281 281 281 281 280 280 281 280 278 277 277 277 277 276 276 276 276 276 277 276 276 276 276 276 276 275 274 274 273 273 272 272 272 271 271 271 271 271 270 269 269 268 268 268 267 266 265 264 264 263 262 262 262 261 260 258 257 256 255 254 253 253 254 255 256 256 256 257 257 257 257 257 258 258
280 280 281 281 281 282 282 283 283 282 281 281 281 282 282 282 282 282 280 279 277 277 277 277 277 277 277 277 278 277 277 276 276 276 276 276 276 275 275 274 273 273 272 272 272 272 271 270 269 269 268 267 267 266 266 266 267 267 266 265 265 264 263 262 262 262 261 259 258 257 257 256 255 254 253 253 254 255 255 255 255 256 256 256 257 257
280 281 281 281 281 281 282 282 282 281 281 281 282 282 283 284 283 282 279 278 277 277 277 278 278 278 278 279 279 278 277 276 276 275 275 275 275 275 274 274 274 274 273 272 272 271 271 270 269 268 267 267 266 265 265 264 264 265 265 265 265 265 264 263 262 262 262 261 259 257 257 257 257 256 255 254 253 254 255 256 256 255 255 256 256 257
280 281 281 281 280 281 281 281 280 280 280 281 282 284 284 283 281 280 279 279 279 279 279 279 279 278 278 278 278 278 278 277 277 276 276 275 275 275 275 275 275 275 274 273 272 271 270 269 268 267 267 266 266 265 264 263 262 262 262 263 263 264 264 264 263 263 263 263 262 260 258 257 257 257 257 257 256 255 255 256 256 256 256 256 256 256
280 280 280 280 280 281 282 281 280 279 280 282 284 284 282 280 280 280 280 280 280 280 280 279 278 278 278 278 278 278 279 279 279 278 278 277 277 276 276 276 276 276 275 275 274 273 271 270 269 268 267 266 265 264 263 262 262 261 261 261 262 262 263 263 264 264 264 264 264 263 261 260 259 258 259 259 258 258 258 258 257 257 256 256 256 256
279 279 279 280 280 282 282 281 280 280 281 284 284 281 279 279 280 280 279 279 279 279 279 279 279 278 278 278 278 278 278 279 279 279 279 279 278 278 278 278 277 277 276 276 275 274 273 272 270 269 268 266 265 264 262 261 260 260 260 260 260 261 262 262 262 263 263 263 263 263 263 262 260 260 259 259 259 259 259 259 259 258 257 257 257 257
279 278 279 279 280 281 282 281 280 281 283 283 281 280 280 281 280 279 278 278 278 278 278 278 279 278 278 278 278 278 278 278 278 279 279 279 279 278 278 278 278 278 278 277 276 276 275 274 273 271 270 269 267 265 263 262 260 259 258 258 258 259 260 260 261 261 261 261 262 262 262 261 261 260 260 259 259 259 259 259 259 260 259 259 259 259
279 279 279 279 280 280 281 280 280 281 282 281 281 281 281 279 279 278 278 278 278 278 278 278 277 277 278 278 278 278 278 278 279 279 279 279 279 279 278 278 278 278 278 278 277 277 276 275 274 272 271 270 269 267 265 264 261 259 258 257 257 257 257 258 259 259 260 260 260 261 261 261 261 260 260 259 259 259 259 259 259 260 260 260 261 261
278 278 278 278 279 279 280 280 280 280 280 280 281 281 280 279 279 279 278 278 278 277 277 277 277 277 277 277 278 278 278 278 278 279 279 279 279 279 278 278 278 277 277 277 277 277 276 275 274 273 272 271 270 268 266 265 263 261 258 257 256 256 255 255 256 257 258 259 259 260 260 260 261 261 260 260 259 259 259 259 259 260 260 260 261 261
277 278 278 278 279 279 279 279 279 279 280 281 281 280 280 280 279 279 278 277 277 277 277 276 276 276 276 276 277 277 277 277 277 278 278 277 277 277 277 277 277 277 276 276 276 276 276 275 275 274 273 271 270 268 267 265 264 262 260 258 256 255 255 254 254 254 255 256 257 258 258 259 259 260 260 260 260 259 259 259 259 259 259 260 260 260
277 278 278 278 279 279 279 279 279 280 280 281 281 280 280 280 279 278 278 277 278 277 277 276 276 276 276 276 276 276 277 277 277 277 277 277 277 276 276 276 276 275 275 275 274 274 274 274 274 274 273 272 271 269 267 265 264 263 261 259 256 255 253 253 252 252 253 254 255 255 256 257 257 258 259 260 260 259 259 259 259 259 259 259 259 259
277 277 277 277 278 278 278 278 279 279 280 280 280 280 280 279 278 278 278 278 278 277 276 276 277 277 277 277 277 277 277 277 276 275 275 276 277 277 277 276 276 275 275 275 274 273 272 271 271 272 272 272 271 270 269 266 264 263 262 261 259 257 254 253 251 251 251 251 252 253 254 255 256 256 257 258 259 259 258 258 258 258 258 259 259 259
277 277 277 276 277 277 277 277 277 277 279 280 280 280 279 278 278 278 278 279 278 277 277 278 278 278 277 277 277 277 277 276 276 276 275 275 275 276 277 277 277 277 276 276 275 274 273 271 270 269 269 269 269 269 269 268 266 264 262 261 261 259 258 255 253 251 251 250 251 252 252 253 254 255 256 257 258 258 258 258 258 258 258 259 259 259
276 276 276 276 276 276 276 276 277 279 280 280 279 278 278 278 278 278 278 278 278 278 279 279 279 279 278 278 277 277 277 277 277 277 276 275 275 275 276 277 277 277 277 276 276 275 274 273 271 269 268 267 267 266 266 266 266 266 264 262 261 261 260 259 257 254 253 252 252 252 252 252 252 253 254 255 257 258 258 258 257 257 258 258 259 259
275 275 275 275 276 276 277 278 280 281 281 279 278 278 278 278 278 278 278 278 278 278 278 279 279 279 279 278 278 277 277 277 277 276 276 276 275 275 275 275 275 276 276 276 276 275 275 274 273 271 270 268 267 265 264 264 264 264 264 262 261 260 260 260 259 257 255 254 253 253 252 252 252 252 252 253 255 256 257 257 257 257 257 258 258 259
275 275 275 275 276 276 277 278 280 281 280 279 278 278 278 278 279 280 279 278 278 279 279 279 278 278 278 278 278 278 278 277 277 277 276 275 275 274 274 274 274 274 274 274 274 274 274 274 273 272 271 270 269 267 266 264 263 263 264 263 261 259 259 259 259 259 257 256 255 254 253 252 252 252 252 252 253 254 255 256 256 257 257 257 257 257
275 276 276 276 276 277 277 279 281 280 279 278 277 277 278 279 279 279 279 280 280 279 279 278 278 278 278 278 279 279 279 278 278 277 277 276 275 275 274 273 273 273 273 273 273 273 273 273 273 272 272 271 270 269 268 266 265 264 264 264 263 260 259 258 258 258 258 257 256 255 253 253 252 252 252 252 253 253 254 255 256 256 256 257 257 257
277 277 277 277 277 277 279 280 280 278 277 277 277 278 279 279 278 278 279 280 280 279 279 278 279 279 279 279 280 280 280 280 279 279 278 278 277 276 275 274 273 273 272 272 272 271 271 272 272 272 272 271 271 270 269 268 266 265 264 264 264 262 260 258 257 257 256 256 256 255 254 253 252 252 252 252 252 253 254 254 255 256 257 257 257 257
278 278 279 279 279 278 278 279 278 277 277 277 277 277 278 278 278 279 279 279 279 279 278 279 279 279 279 280 280 280 280 281 281 281 280 279 279 278 277 276 274 273 273 272 271 271 270 270 270 271 271 271 271 271 270 269 268 266 265 264 263 262 261 259 258 257 256 256 256 255 255 254 253 252 252 252 252 252 253 254 255 255 256 256 257 257
280 280 280 280 278 278 278 279 278 277 277 276 277 278 278 278 278 279 279 278 278 278 278 278 279 279 279 279 280 280 281 281 281 281 280 279 279 279 278 277 276 275 275 274 273 272 272 271 271 271 271 271 271 271 270 270 269 268 266 265 264 263 262 260 259 258 257 257 256 256 255 255 254 253 252 252 252 252 252 253 253 254 255 255 255 256
281 280 279 278 278 279 280 279 276 276 277 278 279 279 278 278 278 278 278 278 279 279 279 279 279 279 279 280 280 280 280 280 280 279 279 279 279 278 278 278 277 277 276 276 275 275 274 274 273 272 272 272 271 270 270 270 270 269 268 267 265 265 264 262 260 259 258 257 257 256 256 256 255 254 253 252 252 252 252 252 252 252 253 254 254 254
280 280 279 278 279 279 279 277 277 277 278 279 280 279 278 278 278 278 278 278 278 279 279 279 280 281 281 281 281 280 280 280 279 279 279 279 279 278 278 277 277 277 276 276 276 276 275 275 274 273 272 272 271 270 270 269 269 268 268 267 266 266 265 263 262 260 259 258 258 257 256 256 255 255 254 253 252 252 251 251 251 251 251 252 252 253
279 279 278 278 279 279 278 278 279 279 279 279 279 279 279 279 279 279 279 279 278 279 280 280 281 281 282 282 282 281 281 280 280 280 280 280 279 279 278 277 276 276 275 275 275 274 274 274 274 273 272 271 271 270 269 268 267 266 266 266 266 266 265 264 263 261 260 259 258 258 257 257 256 255 255 254 253 252 251 251 251 251 250 250 251 251
Height
10736 10739 10739 10734 10728 10725 10726 10727 10728 10729 10729 10732 10732 10732 10733 10734 10736 10731 10729 10727 10722 10733 10742 10738 10740 10742 10739 10738 10734 10730 10726 10724 10723 10722 10721 10719 10719 10719 10717 10716 10715 10715 10714 10712 10712 10712 10713 10715 10714 10715 10715 10715 10714 10712 10713 10713 10712 10711 10711 10710 10709 10708 10707 10706 10704 10704 10704 10704 10704 10706 10706 10706 10706 10707 10707 10707 10706 10707 10707 10708 10709 10709 10709 10710 10711 10712
10731 10734 10732 10725 10722 10721 10722 10720 10720 10722 10722 10724 10725 10725 10727 10726 10729 10727 10725 10722 10717 10727 10738 10734 10736 10738 10734 10734 10731 10728 10725 10718 10716 10720 10719 10715 10714 10713 10712 10711 10710 10711 10709 10707 10706 10705 10706 10707 10707 10708 10707 10707 10707 10706 10706 10706 10706 10706 10706 10705 10703 10703 10702 10700 10700 10699 10698 10698 10698 10699 10699 10699 10699 10699 10699 10699 10699 10700 10701 10700 10701 10701 10702 10704 10704 10705
10727 10728 10723 10717 10716 10716 10715 10713 10713 10715 10716 10717 10715 10716 10720 10718 10720 10724 10720 10716 10715 10721 10729 10728 10732 10736 10731 10731 10729 10724 10721 10715 10711 10715 10717 10714 10709 10705 10706 10706 10706 10706 10704 10702 10700 10699 10700 10700 10700 10700 10701 10701 10700 10699 10699 10700 10700 10700 10700 10698 10698 10698 10696 10695 10694 10693 10692 10692 10693 10693 10692 10692 10692 10692 10691 10692 10692 10693 10693 10693 10694 10695 10696 10697 10698 10698
10723 10720 10713 10710 10710 10710 10709 10707 10706 10707 10709 10709 10706 10707 10713 10710 10710 10717 10716 10711 10712 10714 10719 10722 10727 10732 10728 10727 10727 10721 10715 10711 10709 10710 10712 10712 10706 10702 10700 10700 10701 10700 10698 10697 10695 10693 10693 10693 10693 10694 10694 10694 10693 10693 10692 10693 10694 10693 10692 10691 10691 10691 10690 10690 10689 10687 10687 10686 10686 10686 10686 10686 10686 10685 10685 10685 10684 10685 10686 10686 10687 10688 10689 10690 10690 10689
10715 10709 10704 10704 10703 10702 10702 10701 10697 10698 10702 10703 10699 10698 10703 10703 10701 10707 10709 10708 10709 10708 10709 10714 10721 10727 10724 10722 10725 10718 10709 10706 10706 10707 10707 10705 10702 10701 10699 10697 10694 10692 10691 10691 10689 10687 10686 10686 10686 10686 10687 10687 10686 10685 10685 10686 10686 10685 10685 10684 10685 10684 10683 10683 10683 10682 10682 10681 10680 10679 10679 10679 10679 10679 10679 10678 10677 10678 10679 10680 10681 10682 10682 10681 10680 10680
10708 10697 10693 10697 10696 10694 10695 10694 10687 10686 10696 10698 10692 10687 10690 10694 10694 10695 10697 10700 10705 10704 10702 10704 10711 10720 10720 10717 10718 10714 10707 10703 10702 10702 10701 10698 10696 10697 10697 10695 10690 10685 10684 10685 10683 10681 10679 10679 10679 10678 10678 10679 10679 10678 10678 10678 10677 10677 10678 10677 10677 10676 10676 10676 10676 10676 10676 10675 10675 10674 10673 10672 10673 10673 10673 10671 10671 10672 10674 10674 10674 10674 10673 10672 10672 10672
10700 10688 10685 10689 10690 10688 10687 10684 10677 10676 10687 10691 10684 10679 10680 10683 10685 10686 10686 10689 10696 10699 10698 10697 10699 10709 10716 10713 10709 10708 10705 10703 10700 10697 10696 10694 10691 10691 10691 10689 10686 10682 10678 10677 10677 10674 10672 10671 10670 10669 10670 10670 10671 10671 10671 10670 10669 10669 10669 10669 10669 10669 10669 10668 10668 10669 10668 10668 10668 10668 10667 10667 10666 10666 10665 10665 10666 10667 10667 10667 10667 10666 10665 10665 10665 10665
10691 10683 10682 10681 10681 10682 10679 10673 10670 10670 10676 10681 10676 10672 10673 10673 10673 10675 10676 10678 10684 10689 10693 10693 10689 10695 10708 10709 10703 10702 10701 10700 10699 10695 10691 10690 10687 10685 10683 10680 10679 10679 10676 10673 10670 10667 10664 10663 10662 10660 10660 10661 10663 10663 10663 10662 10661 10661 10661 10661 10661 10661 10661 10660 10661 10662 10661 10661 10661 10661 10662 10661 10659 10658 10658 10659 10660 10659 10659 10659 10659 10658 10658 10658 10658 10657
10681 10679 10679 10675 10674 10673 10668 10664 10664 10663 10664 10668 10667 10665 10665 10663 10663 10664 10665 10667 10671 10677 10685 10686 10679 10679 10695 10704 10699 10697 10697 10695 10695 10691 10688 10688 10685 10681 10678 10673 10671 10671 10671 10669 10665 10660 10655 10653 10654 10653 10651 10651 10653 10653 10654 10654 10653 10654 10654 10653 10653 10653 10653 10653 10653 10654 10654 10654 10654 10654 10655 10654 10652 10652 10652 10652 10652 10651 10651 10651 10651 10651 10650 10651 10651 10650
10673 10674 10674 10670 10668 10662 10659 10657 10656 10654 10653 10655 10655 10657 10657 10654 10655 10654 10654 10657 10656 10666 10677 10675 10667 10665 10682 10697 10693 10691 10692 10688 10687 10684 10682 10682 10679 10677 10674 10671 10668 10665 10663 10662 10660 10656 10649 10644 10642 10642 10642 10642 10642 10642 10643 10644 10645 10646 10646 10646 10646 10646 10645 10645 10645 10645 10645 10645 10646 10647 10647 10646 10646 10646 10646 10645 10644 10643 10642 10643 10643 10642 10643 10644 10643 10643
10664 10666 10666 10663 10659 10654 10651 10649 10646 10644 10641 10641 10642 10645 10645 10644 10645 10643 10645 10646 10642 10654 10666 10659 10652 10651 10670 10691 10687 10682 10684 10680 10676 10673 10672 10673 10671 10669 10666 10664 10663 10659 10656 10653 10651 10650 10646 10640 10633 10629 10629 10630 10632 10632 10631 10633 10635 10637 10638 10639 10638 10637 10637 10637 10637 10637 10637 10637 10638 10638 10638 10638 10638 10639 10639 10638 10637 10636 10635 10634 10634 10634 10635 10636 10635 10634
10657 10657 10655 10653 10649 10645 10642 10639 10637 10633 10629 10629 10630 10632 10631 10631 10632 10631 10634 10632 10627 10641 10651 10645 10639 10638 10659 10682 10677 10670 10672 10668 10665 10662 10661 10662 10661 10660 10656 10653 10652 10648 10646 10644 10642 10641 10639 10635 10630 10625 10620 10618 10618 10619 10621 10623 10625 10627 10628 10629 10630 10629 10628 10628 10628 10628 10628 10629 10629 10628 10629 10629 10629 10630 10630 10629 10629 10628 10628 10627 10627 10627 10627 10627 10626 10626
10650 10648 10644 10642 10640 10636 10632 10630 10627 10623 10621 10620 10618 10618 10617 10617 10618 10617 10618 10615 10612 10626 10634 10630 10624 10625 10650 10670 10663 10658 10659 10654 10653 10652 10650 10647 10645 10645 10643 10640 10638 10635 10634 10633 10631 10630 10628 10625 10623 10621 10618 10612 10608 10607 10608 10612 10615 10618 10619 10619 10619 10619 10619 10619 10618 10619 10619 10620 10620 10619 10620 10620 10621 10621 10620 10619 10619 10618 10618 10619 10620 10620 10619 10619 10619 10618
10640 10641 10636 10630 10628 10627 10623 10619 10614 10614 10615 10612 10609 10606 10602 10603 10603 10599 10598 10595 10598 10611 10615 10612 10609 10614 10639 10655 10649 10645 10645 10642 10641 10640 10636 10633 10631 10630 10626 10623 10621 10619 10618 10617 10617 10616 10613 10612 10612 10612 10611 10609 10605 10602 10601 10601 10601 10604 10606 10608 10609 10610 10610 10611 10611 10611 10611 10611 10611 10611 10612 10612 10612 10611 10609 10609 10609 10608 10608 10609 10610 10610 10610 10611 10610 10609
10622 10629 10630 10619 10614 10618 10615 10608 10603 10603 10605 10603 10600 10595 10592 10594 10587 10577 10575 10578 10586 10596 10597 10596 10596 10602 10623 10636 10635 10634 10633 10632 10628 10623 10620 10617 10617 10618 10613 10608 10605 10602 10599 10598 10599 10598 10595 10595 10597 10600 10601 10601 10601 10600 10598 10595 10592 10591 10592 10595 10598 10600 10602 10603 10604 10604 10604 10603 10603 10603 10602 10602 10603 10601 10600 10599 10598 10598 10598 10598 10599 10599 10600 10600 10599 10599
10602 10612 10621 10611 10601 10604 10604 10599 10596 10593 10593 10592 10590 10586 10584 10581 10570 10559 10556 10561 10568 10571 10576 10584 10585 10590 10603 10614 10621 10624 10622 10621 10615 10609 10606 10602 10601 10602 10597 10593 10590 10585 10580 10578 10580 10580 10578 10578 10581 10586 10590 10592 10594 10593 10591 10588 10586 10585 10585 10586 10587 10589 10591 10593 10595 10595 10595 10594 10594 10593 10592 10592 10592 10591 10590 10589 10588 10589 10589 10589 10590 10589 10588 10588 10588 10588
10585 10593 10606 10603 10592 10590 10591 10591 10589 10586 10582 10578 10577 10578 10574 10564 10557 10552 10545 10546 10549 10543 10550 10564 10568 10576 10583 10590 10608 10615 10609 10607 10601 10594 10593 10590 10588 10584 10577 10573 10571 10568 10564 10561 10562 10562 10562 10564 10567 10573 10577 10579 10581 10582 10582 10581 10577 10576 10578 10580 10581 10580 10580 10581 10581 10582 10581 10581 10581 10579 10579 10579 10580 10580 10579 10579 10579 10580 10580 10580 10580 10578 10577 10578 10577 10577
10566 10569 10585 10592 10583 10575 10577 10580 10580 10580 10577 10567 10561 10563 10560 10551 10549 10547 10536 10534 10534 10525 10528 10539 10544 10554 10559 10567 10592 10603 10597 10596 10588 10580 10579 10575 10572 10566 10558 10553 10549 10548 10547 10546 10547 10548 10550 10553 10555 10558 10561 10562 10564 10566 10569 10570 10567 10564 10564 10567 10569 10569 10568 10568 10568 10567 10565 10565 10564 10563 10563 10564 10565 10567 10567 10568 10569 10570 10571 10570 10568 10567 10567 10566 10565 10566
10550 10545 10559 10578 10578 10564 10560 10566 10570 10572 10566 10553 10544 10544 10543 10538 10538 10537 10527 10523 10520 10512 10513 10519 10522 10529 10536 10549 10568 10576 10583 10587 10573 10563 10562 10558 10552 10544 10537 10533 10529 10529 10531 10533 10534 10536 10538 10542 10544 10544 10544 10544 10546 10547 10549 10551 10554 10555 10551 10549 10550 10551 10552 10552 10552 10551 10549 10548 10547 10546 10547 10549 10550 10552 10554 10556 10558 10560 10560 10558 10556 10555 10554 10553 10552 10553
10539 10528 10533 10557 10567 10555 10549 10556 10563 10561 10550 10536 10530 10529 10530 10527 10524 10519 10511 10508 10507 10499 10496 10498 10499 10505 10519 10533 10543 10550 10565 10569 10553 10543 10540 10534 10528 10520 10514 10514 10513 10513 10517 10519 10521 10524 10528 10529 10528 10528 10528 10527 10526 10527 10529 10531 10535 10540 10539 10535 10531 10529 10531 10532 10531 10532 10532 10532 10532 10532 10533 10534 10535 10536 10539 10542 10545 10547 10546 10544 10542 10542 10540 10539 10539 10540
10529 10519 10515 10531 10545 10544 10544 10548 10548 10544 10534 10525 10519 10515 10516 10516 10511 10501 10492 10494 10495 10483 10477 10476 10473 10480 10495 10506 10519 10533 10542 10538 10527 10521 10516 10507 10503 10500 10498 10499 10500 10500 10501 10504 10508 10511 10515 10515 10511 10508 10509 10509 10508 10507 10508 10512 10515 10518 10519 10519 10517 10513 10511 10512 10512 10513 10514 10515 10518 10520 10521 10521 10521 10522 10524 10527 10529 10530 10529 10527 10527 10526 10524 10524 10525 10526
10516 10508 10502 10509 10522 10531 10537 10537 10532 10525 10520 10515 10507 10501 10501 10498 10491 10479 10472 10480 10481 10466 10461 10458 10447 10455 10471 10480 10494 10509 10512 10505 10496 10493 10492 10489 10485 10483 10483 10483 10485 10486 10485 10487 10492 10495 10497 10498 10493 10489 10488 10488 10488 10487 10487 10492 10496 10496 10496 10498 10500 10499 10497 10495 10495 10497 10498 10500 10502 10504 10506 10507 10508 10509 10509 10510 10510 10510 10510 10509 10509 10509 10508 10510 10510 10510
10500 10492 10489 10493 10502 10508 10513 10520 10520 10512 10507 10502 10494 10490 10487 10479 10473 10463 10454 10459 10460 10448 10446 10443 10429 10433 10452 10464 10472 10475 10473 10471 10466 10467 10473 10474 10471 10470 10469 10467 10467 10467 10466 10466 10470 10474 10476 10477 10475 10471 10469 10469 10469 10468 10467 10469 10473 10475 10476 10476 10477 10479 10480 10480 10480 10481 10482 10483 10485 10487 10488 10490 10491 10491 10491 10492 10492 10491 10491 10491 10491 10492 10493 10494 10494 10495
10483 10475 10473 10477 10483 10485 10488 10498 10503 10499 10492 10483 10475 10473 10468 10461 10457 10450 10441 10440 10436 10428 10431 10429 10418 10421 10435 10445 10449 10445 10441 10441 10441 10446 10453 10455 10454 10454 10452 10451 10450 10448 10447 10446 10446 10450 10454 10456 10456 10453 10451 10451 10450 10449 10449 10450 10452 10455 10456 10456 10457 10458 10459 10461 10463 10464 10464 10465 10466 10467 10469 10471 10470 10470 10472 10474 10474 10473 10473 10472 10473 10474 10476 10478 10479 10481
10465 10459 10456 10456 10459 10464 10469 10475 10480 10481 10474 10460 10452 10451 10448 10444 10440 10433 10429 10423 10412 10411 10419 10413 10404 10412 10422 10420 10419 10419 10418 10419 10421 10425 10430 10433 10435 10436 10434 10434 10433 10432 10431 10430 10429 10429 10431 10434 10437 10436 10434 10433 10432 10431 10431 10431 10432 10435 10435 10436 10436 10438 10439 10441 10443 10445 10446 10448 10450 10449 10450 10450 10450 10451 10453 10454 10455 10456 10455 10454 10456 10457 10459 10460 10463 10464
10442 10440 10442 10439 10436 10439 10446 10451 10455 10456 10449 10438 10433 10431 10428 10426 10422 10416 10412 10405 10397 10401 10405 10395 10389 10397 10403 10398 10394 10396 10396 10396 10399 10402 10407 10412 10414 10417 10417 10415 10415 10416 10416 10415 10415 10414 10413 10415 10416 10417 10417 10416 10414 10413 10413 10413 10413 10414 10415 10416 10417 10418 10420 10423 10425 10426 10427 10430 10433 10434 10433 10432 10431 10432 10433 10435 10437 10439 10438 10439 10440 10441 10442 10443 10444 10445
10419 10417 10423 10424 10417 10417 10422 10426 10431 10428 10419 10413 10411 10410 10409 10408 10405 10400 10393 10390 10392 10389 10382 10381 10381 10378 10377 10377 10374 10375 10376 10374 10375 10379 10385 10390 10392 10393 10395 10393 10393 10396 10397 10398 10399 10397 10397 10396 10396 10397 10397 10397 10397 10395 10395 10395 10395 10395 10396 10397 10398 10400 10402 10404 10407 10408 10410 10412 10415 10417 10417 10415 10413 10413 10415 10417 10420 10422 10423 10425 10425 10425 10426 10426 10426 10428
10399 10395 10402 10404 10395 10394 10398 10403 10408 10405 10395 10389 10386 10386 10390 10389 10387 10384 10380 10382 10382 10366 10356 10369 10375 10361 10353 10355 10355 10358 10362 10359 10357 10358 10360 10365 10368 10369 10371 10371 10371 10374 10376 10378 10379 10378 10378 10378 10378 10378 10377 10378 10379 10378 10377 10377 10378 10379 10379 10378 10379 10381 10383 10386 10389 10390 10393 10395 10397 10399 10398 10397 10396 10397 10399 10401 10403 10406 10408 10409 10409 10409 10409 10409 10410 10412
10381 10376 10385 10384 10372 10372 10377 10379 10383 10381 10373 10368 10366 10366 10371 10371 10370 10370 10370 10370 10360 10343 10339 10353 10356 10344 10334 10334 10339 10344 10347 10345 10342 10341 10341 10342 10344 10346 10348 10349 10350 10352 10354 10355 10356 10358 10359 10360 10361 10360 10359 10359 10360 10361 10361 10359 10359 10360 10361 10361 10361 10363 10365 10368 10369 10371 10375 10377 10378 10379 10379 10379 10380 10382 10384 10386 10387 10389 10390 10391 10392 10392 10392 10393 10394 10395
10360 10359 10368 10365 10354 10355 10359 10359 10359 10355 10349 10348 10349 10350 10352 10355 10359 10358 10353 10349 10339 10327 10328 10332 10332 10326 10317 10317 10325 10328 10327 10326 10325 10325 10325 10325 10324 10325 10326 10326 10329 10332 10335 10335 10336 10337 10339 10341 10342 10342 10342 10342 10342 10344 10346 10345 10342 10341 10342 10342 10343 10344 10347 10350 10351 10352 10354 10358 10360 10361 10361 10361 10362 10364 10367 10370 10371 10372 10373 10374 10374 10375 10376 10377 10378 10379
10339 10339 10346 10343 10334 10337 10346 10345 10338 10332 10328 10329 10332 10337 10340 10342 10342 10337 10329 10326 10321 10316 10316 10316 10313 10309 10303 10302 10306 10306 10304 10306 10306 10307 10309 10308 10306 10307 10306 10307 10309 10312 10316 10318 10318 10319 10320 10322 10322 10323 10324 10324 10325 10326 10328 10329 10329 10326 10324 10324 10324 10324 10326 10329 10332 10334 10334 10336 10340 10343 10344 10344 10345 10347 10350 10353 10355 10356 10356 10356 10357 10359 10361 10362 10362 10363
10323 10319 10322 10321 10311 10316 10333 10331 10318 10313 10310 10310 10319 10329 10330 10327 10320 10313 10307 10305 10303 10302 10303 10301 10297 10292 10290 10288 10285 10283 10284 10285 10285 10287 10290 10290 10289 10289 10289 10290 10291 10292 10295 10298 10300 10302 10303 10304 10304 10305 10306 10307 10308 10309 10309 10311 10313 10312 10310 10307 10306 10306 10307 10309 10313 10315 10316 10316 10319 10324 10326 10327 10328 10330 10332 10334 10337 10339 10339 10340 10342 10344 10345 10346 10346 10346
10307 10299 10299 10299 10290 10295 10315 10312 10297 10291 10290 10300 10316 10319 10310 10305 10301 10297 10293 10288 10288 10288 10285 10283 10279 10275 10274 10272 10269 10267 10266 10265 10264 10265 10268 10271 10271 10271 10271 10272 10273 10274 10276 10278 10281 10283 10284 10286 10287 10288 10289 10289 10290 10291 10292 10293 10295 10296 10295 10293 10291 10290 10290 10292 10294 10297 10299 10299 10300 10303 10307 10309 10311 10313 10314 10316 10319 10321 10322 10323 10325 10327 10328 10329 10329 10329
10291 10284 10280 10278 10270 10275 10294 10292 10273 10266 10275 10293 10306 10298 10288 10289 10288 10283 10278 10274 10273 10272 10267 10264 10262 10259 10257 10256 10255 10254 10252 10251 10249 10247 10247 10250 10251 10253 10254 10254 10253 10255 10258 10259 10261 10263 10264 10266 10268 10269 10270 10271 10271 10271 10273 10275 10278 10280 10280 10278 10277 10275 10275 10276 10278 10279 10281 10282 10282 10284 10287 10289 10291 10294 10296 10298 10301 10303 10305 10306 10307 10308 10310 10311 10312 10313
10275 10271 10265 10262 10255 10256 10270 10269 10251 10249 10264 10276 10278 10276 10276 10276 10271 10265 10262 10259 10258 10256 10252 10249 10246 10243 10240 10238 10238 10239 10239 10238 10237 10235 10233 10231 10231 10234 10237 10236 10235 10235 10237 10239 10241 10243 10245 10247 10249 10250 10251 10252 10252 10252 10253 10255 10260 10263 10264 10262 10261 10261 10261 10261 10262 10262 10263 10264 10264 10265 10267 10269 10271 10273 10276 10279 10281 10284 10286 10287 10288 10289 10291 10293 10294 10295
10255 10253 10248 10246 10244 10241 10247 10248 10238 10238 10249 10253 10254 10260 10263 10256 10250 10248 10245 10242 10244 10243 10238 10234 10230 10227 10225 10222 10221 10222 10223 10225 10225 10223 10219 10215 10214 10215 10217 10219 10219 10217 10217 10218 10220 10223 10225 10226 10229 10231 10231 10232 10233 10233 10233 10235 10239 10244 10246 10245 10244 10245 10246 10245 10246 10246 10245 10246 10247 10247 10249 10250 10251 10252 10255 10258 10261 10264 10266 10268 10269 10271 10272 10275 10276 10277
10238 10235 10231 10228 10229 10228 10226 10228 10228 10226 10229 10235 10239 10242 10241 10236 10234 10232 10226 10225 10229 10228 10222 10218 10215 10212 10210 10207 10206 10206 10207 10210 10213 10210 10205 10201 10200 10199 10199 10200 10200 10201 10201 10201 10200 10201 10203 10204 10207 10210 10211 10213 10214 10214 10214 10215 10218 10223 10226 10226 10225 10226 10228 10229 10229 10230 10229 10229 10230 10230 10231 10231 10232 10232 10233 10237 10242 10245 10247 10249 10251 10253 10255 10257 10260 10261
10223 10220 10217 10210 10210 10213 10209 10208 10213 10212 10213 10221 10224 10221 10219 10216 10215 10213 10207 10207 10213 10211 10203 10200 10200 10198 10196 10193 10192 10192 10193 10195 10199 10198 10191 10186 10186 10185 10184 10183 10182 10182 10183 10184 10183 10184 10184 10183 10185 10187 10189 10191 10193 10194 10195 10196 10197 10200 10205 10206 10205 10206 10208 10209 10211 10213 10213 10213 10213 10214 10214 10214 10214 10214 10214 10217 10222 10226 10230 10232 10234 10236 10237 10240 10243 10245
10210 10206 10203 10193 10191 10196 10192 10189 10194 10198 10199 10204 10204 10202 10200 10196 10194 10191 10185 10188 10198 10195 10182 10179 10182 10183 10182 10179 10178 10178 10179 10180 10183 10185 10178 10169 10167 10168 10168 10168 10167 10165 10165 10165 10166 10167 10168 10167 10166 10166 10166 10167 10169 10172 10173 10176 10178 10179 10181 10184 10184 10185 10186 10188 10192 10195 10197 10198 10198 10197 10197 10197 10198 10198 10197 10199 10203 10208 10212 10215 10217 10219 10220 10222 10225 10227
10197 10193 10189 10180 10177 10179 10175 10172 10178 10183 10187 10189 10184 10181 10180 10175 10173 10171 10167 10171 10179 10173 10163 10162 10166 10167 10165 10163 10162 10163 10163 10162 10164 10168 10167 10158 10151 10148 10148 10149 10149 10148 10147 10147 10146 10147 10150 10151 10151 10151 10149 10147 10147 10148 10150 10154 10158 10160 10160 10161 10161 10162 10164 10168 10173 10177 10179 10182 10182 10181 10181 10181 10182 10183 10183 10183 10186 10190 10195 10198 10200 10202 10204 10205 10208 10210
10184 10179 10171 10166 10165 10164 10161 10158 10160 10167 10179 10180 10167 10159 10158 10155 10153 10153 10154 10156 10154 10148 10147 10148 10148 10148 10148 10145 10144 10145 10145 10144 10144 10147 10151 10148 10142 10135 10131 10129 10129 10129 10128 10127 10126 10125 10127 10131 10133 10134 10133 10130 10128 10128 10128 10131 10136 10140 10141 10141 10140 10139 10142 10148 10154 10158 10161 10164 10165 10164 10164 10165 10166 10168 10169 10168 10169 10173 10178 10182 10185 10186 10188 10189 10191 10194
10169 10160 10154 10152 10150 10146 10144 10142 10143 10156 10172 10167 10147 10139 10139 10135 10135 10138 10139 10137 10134 10132 10132 10131 10128 10128 10128 10126 10126 10126 10126 10127 10127 10127 10129 10131 10130 10126 10120 10113 10111 10110 10109 10107 10106 10104 10103 10107 10112 10113 10114 10114 10111 10110 10110 10111 10115 10119 10121 10122 10122 10120 10122 10128 10134 10139 10144 10147 10147 10147 10148 10149 10151 10153 10154 10154 10154 10156 10159 10164 10167 10170 10172 10174 10175 10177
10151 10141 10138 10140 10135 10127 10127 10130 10133 10143 10153 10144 10127 10124 10122 10116 10117 10121 10121 10120 10120 10118 10118 10115 10112 10109 10107 10105 10107 10107 10108 10111 10111 10110 10110 10112 10113 10112 10109 10102 10096 10094 10092 10090 10088 10085 10082 10085 10090 10091 10092 10093 10091 10090 10091 10093 10097 10100 10101 10102 10103 10102 10105 10110 10114 10118 10124 10127 10128 10129 10131 10133 10135 10137 10138 10139 10139 10140 10142 10144 10148 10152 10155 10157 10159 10161
10134 10125 10122 10126 10124 10115 10113 10123 10128 10126 10124 10120 10112 10107 10104 10102 10102 10101 10098 10101 10105 10104 10102 10100 10096 10093 10089 10087 10087 10089 10092 10094 10093 10093 10094 10094 10095 10095 10094 10091 10084 10079 10077 10075 10072 10069 10065 10066 10070 10071 10071 10072 10070 10068 10070 10073 10077 10082 10082 10081 10082 10086 10090 10093 10095 10100 10105 10107 10108 10110 10113 10115 10118 10120 10122 10123 10123 10124 10126 10127 10130 10133 10137 10140 10143 10145
10120 10113 10106 10109 10114 10104 10099 10115 10124 10109 10097 10099 10096 10091 10089 10092 10091 10083 10077 10082 10088 10088 10085 10079 10077 10077 10074 10071 10070 10071 10074 10076 10076 10076 10076 10075 10077 10078 10077 10076 10072 10065 10062 10060 10057 10053 10049 10048 10051 10052 10052 10054 10051 10048 10050 10052 10056 10062 10064 10061 10060 10067 10075 10078 10079 10083 10086 10087 10089 10091 10093 10097 10100 10102 10103 10104 10105 10107 10109 10110 10112 10115 10119 10122 10126 10130
10107 10100 10089 10094 10101 10093 10090 10107 10108 10086 10077 10081 10080 10078 10079 10076 10074 10070 10065 10066 10069 10069 10066 10062 10060 10061 10059 10056 10055 10054 10056 10058 10058 10058 10058 10057 10059 10060 10059 10057 10054 10049 10045 10043 10040 10037 10034 10033 10034 10034 10034 10037 10035 10030 10030 10034 10037 10041 10045 10043 10041 10046 10054 10060 10062 10065 10068 10069 10070 10072 10075 10078 10082 10083 10084 10085 10087 10089 10091 10093 10096 10099 10102 10105 10108 10111
10094 10084 10075 10079 10083 10078 10084 10097 10085 10064 10064 10069 10065 10067 10068 10060 10056 10057 10054 10052 10052 10051 10050 10048 10046 10045 10043 10041 10040 10038 10040 10042 10040 10038 10039 10039 10040 10042 10040 10036 10034 10030 10028 10027 10023 10020 10019 10018 10018 10018 10018 10021 10021 10015 10013 10017 10020 10020 10023 10025 10024 10026 10034 10041 10044 10047 10050 10051 10052 10055 10058 10060 10064 10066 10067 10068 10071 10073 10075 10078 10080 10082 10086 10090 10091 10093
10078 10072 10065 10061 10060 10061 10074 10084 10069 10049 10050 10054 10052 10056 10056 10047 10043 10044 10040 10037 10036 10034 10034 10035 10032 10030 10029 10026 10025 10025 10027 10029 10025 10020 10020 10022 10023 10023 10020 10017 10015 10013 10011 10010 10006 10004 10004 10004 10005 10005 10004 10006 10006 10000 9998 10001 10003 10001 10000 10004 10006 10009 10015 10023 10026 10028 10032 10034 10034 10037 10041 10042 10045 10049 10050 10052 10054 10057 10060 10063 10064 10066 10070 10073 10074 10076
10058 10059 10052 10040 10041 10053 10063 10063 10050 10037 10037 10042 10043 10042 10039 10033 10032 10031 10026 10023 10021 10019 10019 10018 10016 10016 10016 10013 10012 10010 10011 10013 10011 10004 10003 10006 10008 10006 10004 10001 9999 9998 9996 9994 9991 9988 9988 9989 9990 9990 9991 9991 9989 9985 9984 9987 9987 9983 9980 9983 9989 9992 9997 10004 10008 10011 10015 10018 10018 10020 10023 10024 10027 10031 10034 10036 10038 10040 10043 10046 10048 10050 10054 10056 10058 10060
10040 10043 10035 10021 10027 10045 10048 10040 10033 10027 10028 10033 10031 10024 10018 10017 10017 10017 10014 10011 10007 10005 10004 10003 10002 10002 10001 9999 9997 9995 9994 9996 9995 9991 9989 9991 9992 9992 9990 9986 9984 9983 9982 9979 9976 9974 9973 9973 9973 9974 9975 9975 9971 9969 9971 9973 9971 9966 9962 9963 9971 9975 9978 9984 9988 9993 9998 10001 10001 10003 10004 10006 10010 10013 10016 10019 10022 10024 10027 10030 10031 10034 10038 10040 10041 10044
10029 10027 10018 10008 10013 10026 10030 10027 10022 10015 10014 10018 10015 10007 10003 10002 10001 10000 9999 9995 9993 9993 9992 9991 9989 9988 9986 9983 9981 9978 9978 9980 9980 9978 9976 9976 9976 9976 9975 9972 9969 9969 9968 9964 9962 9961 9959 9959 9958 9957 9958 9958 9955 9953 9954 9955 9954 9949 9945 9947 9953 9957 9959 9963 9968 9974 9981 9983 9984 9985 9987 9989 9993 9996 9997 10000 10004 10006 10009 10013 10014 10017 10021 10023 10024 10027